Location: Asheville, NC
(35.6000°N, 82.5500°W)
Time: 07:14:43
(UTC-04:00)

CUTE-I - Pass Details

Date: 10 February 2018
Orbit: 810 x 826 km, 98.7° (Epoch: 21 May)

Event Time Altitude Azimuth Distance (km) Brightness Sun altitude
Rises 19:28:33 0° 213° (SSW) 3,313 ? -17.0°
Reaches altitude 10° 19:32:10 10° 239° (WSW) 2,387 ? -17.8°
Maximum altitude 19:34:42 14° 268° (W) 2,150 ? -18.3°
Drops below altitude 10° 19:37:15 10° 297° (WNW) 2,396 ? -18.8°
Sets 19:40:56 0° 323° (NW) 3,336 ? -19.5°
